User: anonymous   Login
Location: Keeble Observatory
(37.7625°N, 77.4755°W)
Time: 06:44:16
(UTC-04:00)
Language:

Cosmos 1484 Rocket - Orbit

View from above orbital plane
View from above orbital plane
View from above satellite
View from above satellite

Ground track
Ground track

The orbit data is extracted from the following two-line orbital elements,

1 14208U 83075B   17142.92688683 +.00000376 +00000-0 +26354-4 0  9993
2 14208 097.3411 154.5320 0038372 216.3147 143.5478 15.10368143843390
Epoch (UTC): 22 May 2017 22:14:43
Eccentricity: 0.0038372
inclination: 97.3411°
perigee height: 508 km
apogee height: 561 km
right ascension of ascending node: 154.5320°
argument of perigee: 216.3147°
revolutions per day: 15.10368143
mean anomaly at epoch: 143.5478°
orbit number at epoch: 84339

The dashed part of the orbit path shows where the satellite is in the earth's shadow,  

DLR